This demonstration page uses our WeatherBlox Daily Observations layout. Learn more.

Hourly Observations for September 30, 2020

Temp ( °F °C ) Dew Point ( °F °C ) Humidity (%) Winds ( mph kmh ) Pressure ( in mb ) Visibility ( mi km ) Precip ( " mm )
12:53 am 00:53 Clear 50 10 31 -0.6 48 48 NW 8 13 29.99 1016 10 16.0934 0 0
1:53 am 01:53 Clear 49 9.4 30 -1.1 48 48 NW 10 17 29.99 1016 10 16.0934 0 0
2:53 am 02:53 Clear 46 7.8 30 -1.1 54 54 NW 8 13 30.01 1016 10 16.0934 0 0
3:53 am 03:53 Clear 45 7.2 30 -1.1 56 56 NW 9 15 30.03 1017 10 16.0934 0 0
4:53 am 04:53 Clear 47 8.3 29 -1.7 50 50 NW 12 19 30.04 1017 10 16.0934 0 0
5:53 am 05:53 Clear 45 7.2 30 -1.1 56 56 NW 10 17 30.1 1019 10 16.0934 0 0
6:53 am 06:53 Sunny 46 7.8 31 -0.6 56 56 W 10 17 30.15 1021 10 16.0934 0 0
7:53 am 07:53 Sunny 53 11.7 33 0.6 47 47 WNW 10 17 30.19 1022 10 16.0934 0 0
8:53 am 08:53 Sunny 58 14.4 36 2.2 44 44 WNW 10 17 30.23 1024 10 16.0934 0 0
9:53 am 09:53 Sunny 64 17.8 30 -1.1 28 28 NW 15 24 30.24 1024 10 16.0934 0 0
10:53 am 10:53 Sunny 67 19.4 31 -0.6 26 26 NNW 17 28 30.25 1025 10 16.0934 0 0
11:53 am 11:53 Sunny 67 19.4 30 -1.1 25 25 NW 15 24 30.27 1025 10 16.0934 0 0
12:53 pm 12:53 Sunny 70 21.1 30 -1.1 23 23 NNW 20 31 30.23 1024 10 16.0934 0 0
1:53 pm 13:53 Sunny 71 21.7 31 -0.6 23 23 NNW 21 33 30.2 1023 10 16.0934 0 0
2:53 pm 14:53 Sunny 71 21.7 31 -0.6 23 23 NNW 15 24 30.19 1023 10 16.0934 0 0
3:53 pm 15:53 Sunny 71 21.7 31 -0.6 23 23 NW 17 28 30.19 1022 10 16.0934 0 0
4:53 pm 16:53 Sunny 70 21.1 28 -2.2 21 21 NNW 20 31 30.19 1022 10 16.0934 0 0
5:53 pm 17:53 Sunny 66 18.9 31 -0.6 27 27 NNW 20 31 30.22 1023 10 16.0934 0 0
6:53 pm 18:53 Clear 60 15.6 29 -1.7 31 31 NNW 13 20 30.25 1025 10 16.0934 0 0
7:53 pm 19:53 Mostly Clear 55 12.8 28 -2.2 35 35 WNW 9 15 30.27 1025 10 16.0934 0 0
8:53 pm 20:53 Clear 55 12.8 28 -2.2 35 35 NNW 9 15 30.28 1025 10 16.0934 0 0
9:53 pm 21:53 Clear 52 11.1 27 -2.8 38 38 W 6 9 30.31 1026 10 16.0934 0 0
10:53 pm 22:53 Clear 49 9.4 27 -2.8 43 43 W 7 11 30.33 1027 10 16.0934 0 0
11:53 pm 23:53 Mostly Cloudy 44 6.7 28 -2.2 53 53 undefined N/A 30.36 1028 10 16.0934 0 0

Powered by AerisWeather